[TLELIST] Archives

 

[TLELIST] Current TLEs

July 19th 2024 PDT

HST 1 20580U 90037B 24200.87601516 .00009289 00000-0 43302-3 0 9999 2 20580 28.4679 132.7501 0002485 22.7519 337.3183 15.18150890681851 ISS (ZARYA) 1 25544U 98067A 24201.40357512 .00019866 00000-0 35417-3 0 9999 2 25544 51.6389 155.7337 0010403 83.0271 63.6652 15.50032508463543 CXO 1 25867U 99040B 24202.24291878 .00000670 00000-0 00000+0 0 9993 2 25867 41.8191 150.9845 8854733 298.4036 0.6589 0.37805548 25843 ...Continue Reading

[TLELIST] Current TLEs

July 18th 2024 PDT

HST 1 20580U 90037B 24199.88993407 .00009382 00000-0 43770-3 0 9993 2 20580 28.4677 139.3608 0002478 13.0136 347.0520 15.18133679681703 ISS (ZARYA) 1 25544U 98067A 24200.15235088 .00018477 00000-0 33066-3 0 9998 2 25544 51.6371 161.9379 0010265 78.7950 281.4192 15.49981173463357 CXO 1 25867U 99040B 24202.24291878 .00000670 00000-0 00000+0 0 9993 2 25867 41.8191 150.9845 8854733 298.4036 0.6589 0.37805548 25843 ...Continue Reading

[TLELIST] Current TLEs

July 17th 2024 PDT

HST 1 20580U 90037B 24199.23254028 .00007760 00000-0 36059-3 0 9991 2 20580 28.4676 143.7679 0002462 6.1171 353.9452 15.18119914681867 ISS (ZARYA) 1 25544U 98067A 24199.39303534 .00020587 00000-0 36774-3 0 9997 2 25544 51.6386 165.6954 0010420 76.0087 4.5170 15.49952467463239 CXO 1 25867U 99040B 24199.59791054 .00000580 00000-0 00000-0 0 9998 2 25867 41.7638 151.1853 8857581 298.2798 0.4846 0.37808948 14677 ...Continue Reading

[TLELIST] Current TLEs

July 16th 2024 PDT

HST 1 20580U 90037B 24197.91773766 .00006967 00000-0 32303-3 0 9995 2 20580 28.4673 152.5820 0002419 351.3936 8.6615 15.18097129681404 ISS (ZARYA) 1 25544U 98067A 24198.37662086 .00015944 00000-0 28729-3 0 9996 2 25544 51.6394 170.7281 0010533 71.5404 93.8899 15.49902000463075 CXO 1 25867U 99040B 24199.59791054 .00000580 00000-0 00000-0 0 9998 2 25867 41.7638 151.1853 8857581 298.2798 0.4846 0.37808948 14677 ...Continue Reading

[TLELIST] Current TLEs

July 16th 2024 PDT

HST 1 20580U 90037B 24197.91773766 .00006967 00000-0 32303-3 0 9995 2 20580 28.4673 152.5820 0002419 351.3936 8.6615 15.18097129681404 ISS (ZARYA) 1 25544U 98067A 24198.37662086 .00015944 00000-0 28729-3 0 9996 2 25544 51.6394 170.7281 0010533 71.5404 93.8899 15.49902000463075 CXO 1 25867U 99040B 24199.59791054 .00000580 00000-0 00000-0 0 9998 2 25867 41.7638 151.1853 8857581 298.2798 0.4846 0.37808948 14677 ...Continue Reading

[TLELIST] Current TLEs

July 15th 2024 PDT

HST 1 20580U 90037B 24196.93162303 .00007453 00000-0 34636-3 0 9997 2 20580 28.4673 159.1927 0002385 339.6960 20.3537 15.18084588681255 ISS (ZARYA) 1 25544U 98067A 24197.34082122 .00015218 00000-0 27494-3 0 9991 2 25544 51.6398 175.8581 0010644 67.6542 74.6197 15.49865538462914 CXO 1 25867U 99040B 24199.59791054 .00000580 00000-0 00000-0 0 9998 2 25867 41.7638 151.1853 8857581 298.2798 0.4846 0.37808948 14677 ...Continue Reading

[TLELIST] Current TLEs

July 15th 2024 PDT

HST 1 20580U 90037B 24196.93162303 .00007453 00000-0 34636-3 0 9997 2 20580 28.4673 159.1927 0002385 339.6960 20.3537 15.18084588681255 ISS (ZARYA) 1 25544U 98067A 24197.34082122 .00015218 00000-0 27494-3 0 9991 2 25544 51.6398 175.8581 0010644 67.6542 74.6197 15.49865538462914 CXO 1 25867U 99040B 24199.59791054 .00000580 00000-0 00000-0 0 9998 2 25867 41.7638 151.1853 8857581 298.2798 0.4846 0.37808948 14677 ...Continue Reading

[TLELIST] Current TLEs

July 14th 2024 PDT

HST 1 20580U 90037B 24196.20846685 .00006513 00000-0 30161-3 0 9994 2 20580 28.4673 164.0408 0002373 331.2893 28.7568 15.18073345681406 ISS (ZARYA) 1 25544U 98067A 24196.43688157 .00014208 00000-0 25755-3 0 9996 2 25544 51.6409 180.3357 0010646 64.0986 71.3384 15.49834145462770 CXO 1 25867U 99040B 24196.95371964 .00000503 00000-0 00000-0 0 9994 2 25867 41.7356 151.3405 8861255 298.1871 0.4425 0.37811792 14677 ...Continue Reading

[TLELIST] Current TLEs

July 14th 2024 PDT

HST 1 20580U 90037B 24196.20846685 .00006513 00000-0 30161-3 0 9994 2 20580 28.4673 164.0408 0002373 331.2893 28.7568 15.18073345681406 ISS (ZARYA) 1 25544U 98067A 24196.43688157 .00014208 00000-0 25755-3 0 9996 2 25544 51.6409 180.3357 0010646 64.0986 71.3384 15.49834145462770 CXO 1 25867U 99040B 24196.95371964 .00000503 00000-0 00000-0 0 9994 2 25867 41.7356 151.3405 8861255 298.1871 0.4425 0.37811792 14677 ...Continue Reading

[TLELIST] Current TLEs

July 13th 2024 PDT

HST 1 20580U 90037B 24194.95936794 .00005683 00000-0 26213-3 0 9995 2 20580 28.4673 172.4142 0002341 316.8459 43.1950 15.18057633680953 ISS (ZARYA) 1 25544U 98067A 24195.40811267 .00014756 00000-0 26745-3 0 9990 2 25544 51.6397 185.4342 0010593 60.9221 90.8533 15.49803301462619 CXO 1 25867U 99040B 24196.95371964 .00000503 00000-0 00000-0 0 9994 2 25867 41.7356 151.3405 8861255 298.1871 0.4425 0.37811792 14677 ...Continue Reading
  • This mailing list is a public mailing list - anyone may join or leave, at any time.
  • This mailing list is announce-only.

International Space Station (ISS) / Hubble Space Telescope (HST) / Chandra X-Ray Observatory Orbital Data via EMAIL

Privacy Policy:

Private list